date,time,DOY,Ta_1_1_1,RH_1_1_1,LWin_1_1_1,LWout_1_1_1,SWin_1_1_1,SWout_1_1_1,PPFD_1_1_1,SWC_1_1_1,Ts_1_1_1
[yyyy-mm-dd],[HH:MM],[ddd.ddd],[K],[%],[W+1m-2],[W+1m-2],[W+1m-2],[W+1m-2],[µmol+1m-2s-1],[m+3m-3],[K]
2013-11-03,00:30,307.020,273.39133333333336,93.918333333333337,-6.8166666666666673,-1.4786666666666666,-0.17433333333333337,-1.6806666666666665,0.0000000000000000,0.35999999999999999,277.36899999999997
2013-11-03,01:00,307.041,273.22533333333325,93.952000000000027,-7.3213333333333344,-1.6406666666666667,-6.86666666666666398E-002,-2.3830000000000000,6.66666666666666644E-004,0.35999999999999999,277.32433333333336
2013-11-03,01:30,307.062,272.94766666666675,95.943666666666701,-7.8269999999999991,-2.1583333333333332,0.51366666666666683,-4.0173333333333332,0.0000000000000000,0.35999999999999999,277.23633333333333
2013-11-03,02:00,307.083,272.71099999999996,97.802666666666681,-7.2896666666666681,-1.8646666666666667,0.43733333333333335,-3.1733333333333333,0.0000000000000000,0.35999999999999999,277.07966666666670
2013-11-03,02:30,307.104,272.76900000000001,98.648000000000039,-6.4196666666666671,-1.6923333333333332,9.56666666666666915E-002,-1.9336666666666671,0.0000000000000000,0.35366666666666657,276.94299999999998
2013-11-03,03:00,307.124,272.68799999999999,98.295666666666691,-6.9249999999999989,-2.5746666666666669,0.16433333333333336,-3.2523333333333335,3.33333333333333322E-004,0.34999999999999981,276.86733333333336
2013-11-03,03:30,307.145,272.38100000000003,98.682333333333347,-6.6726666666666663,-2.7549999999999994,0.41600000000000009,-3.3663333333333338,3.33333333333333322E-004,0.34999999999999981,276.79233333333349
2013-11-03,04:00,307.166,272.43633333333332,99.243333333333325,-6.2789999999999990,-1.6966666666666665,-8.36666666666666531E-002,-1.4046666666666663,3.33333333333333322E-004,0.34999999999999981,276.73133333333328
2013-11-03,04:30,307.187,272.42733333333331,99.290333333333308,-6.5433333333333321,-1.8989999999999996,-0.16633333333333333,-2.0786666666666669,-3.33333333333333322E-004,0.34999999999999981,276.70399999999989
2013-11-03,05:00,307.208,272.23666666666674,98.633666666666684,-6.8326666666666664,-2.3973333333333335,9.20000000000000401E-002,-2.9883333333333337,0.0000000000000000,0.34999999999999981,276.67633333333328
2013-11-03,05:30,307.229,272.05266666666671,98.760666666666694,-6.3526666666666660,-2.0569999999999999,-1.13333333333333359E-002,-2.3103333333333329,3.33333333333333322E-004,0.34999999999999981,276.63733333333334
2013-11-03,06:00,307.249,272.06833333333333,98.783666666666647,-5.5423333333333344,-1.5336666666666665,-0.21566666666666670,-1.0486666666666669,-3.33333333333333322E-004,0.34999999999999981,276.59966666666674
2013-11-03,06:30,307.270,272.07333333333338,99.108333333333334,-5.3416666666666668,-1.5999999999999999,-0.42166666666666691,-0.63666666666666671,0.21299999999999999,0.34999999999999981,276.57666666666665
2013-11-03,07:00,307.291,272.00900000000013,99.686333333333351,-4.9306666666666663,-1.7323333333333333,-1.66666666666664227E-003,3.6193333333333331,8.2773333333333330,0.34999999999999981,276.55400000000009
2013-11-03,07:30,307.312,272.07333333333338,99.983999999999952,-5.2646666666666668,-2.1483333333333330,2.4460000000000002,28.547666666666672,53.376666666666658,0.34999999999999981,276.53733333333338
2013-11-03,08:00,307.333,272.10366666666670,99.701000000000022,-5.2396666666666656,-1.7383333333333333,4.1993333333333327,53.349333333333334,104.82466666666667,0.34999999999999981,276.54966666666678
2013-11-03,08:30,307.354,272.22166666666658,98.886333333333312,-4.8373333333333344,-1.7183333333333335,6.7740000000000000,82.484333333333325,164.15633333333332,0.34999999999999981,276.57900000000001
2013-11-03,09:00,307.374,272.57200000000000,98.286000000000001,-4.0236666666666663,-2.8130000000000002,14.558333333333332,154.04366666666664,298.72933333333333,0.34999999999999981,276.65033333333332
2013-11-03,09:30,307.395,272.80366666666680,97.546999999999997,-4.0363333333333333,-4.4646666666666679,12.466000000000001,134.45600000000002,269.60533333333331,0.34999999999999981,276.81100000000004
2013-11-03,10:00,307.416,273.12166666666673,96.748999999999995,-3.7383333333333337,-3.2216666666666662,14.340000000000000,155.75300000000001,313.62233333333336,0.34999999999999981,276.95800000000003
2013-11-03,10:30,307.437,273.43733333333336,95.190666666666658,-3.1846666666666668,-3.8666666666666663,16.576999999999998,182.42466666666670,369.51466666666664,0.34999999999999981,277.10199999999998
2013-11-03,11:00,307.458,273.58766666666662,95.362333333333382,-2.6579999999999995,-3.2906666666666662,15.739666666666665,172.32800000000000,348.90833333333336,0.34999999999999981,277.24466666666672
2013-11-03,11:30,307.479,273.90033333333344,94.191000000000003,-2.7763333333333340,-4.5739999999999990,16.714000000000002,179.63733333333329,369.58933333333340,0.34999999999999981,277.36466666666666
2013-11-03,12:00,307.499,274.64133333333331,89.585333333333310,-3.0456666666666665,-7.0895238095238096,20.557666666666666,214.37966666666662,439.94400000000007,0.34999999999999981,277.50833333333338
2013-11-03,12:30,307.520,275.28866666666670,83.985666666666674,-3.9933333333333336,-9999.0,29.161333333333335,284.53533333333337,580.94400000000007,0.34999999999999981,277.68433333333337
2013-11-03,13:00,307.541,275.41666666666674,82.014999999999972,-4.8146666666666675,-9999.0,14.541000000000000,147.77433333333335,302.95733333333334,0.34999999999999981,277.79366666666670
2013-11-03,13:30,307.562,275.85300000000001,81.688000000000017,-3.9836666666666662,-9999.0,24.554333333333332,242.89433333333335,493.47699999999998,0.34999999999999981,277.88299999999992
2013-11-03,14:00,307.583,276.29100000000000,78.955333333333357,-5.7050000000000010,-9999.0,23.482666666666663,226.02100000000004,455.75233333333341,0.34999999999999981,278.03866666666670
2013-11-03,14:30,307.604,276.58966666666663,74.851333333333329,-6.1746666666666679,-9999.0,18.775333333333336,174.80666666666670,357.06166666666667,0.34999999999999981,278.12566666666675
2013-11-03,15:00,307.624,277.21899999999999,70.099666666666678,-6.6480000000000006,-9999.0,29.397333333333336,270.96600000000007,517.97166666666658,0.34999999999999981,278.15966666666657
2013-11-03,15:30,307.645,277.03466666666679,69.646333333333331,-8.4323333333333306,-9999.0,19.390000000000001,157.45866666666672,300.51600000000002,0.34999999999999981,278.21333333333331
2013-11-03,16:00,307.666,276.75533333333334,70.138666666666651,-9.3725925925925910,-9999.0,8.3129999999999988,63.402666666666654,131.17533333333333,0.34999999999999981,278.13900000000001
2013-11-03,16:30,307.687,276.44933333333341,71.019000000000005,-9.7949999999999999,-9999.0,3.9923333333333333,27.473999999999997,60.261666666666677,0.34999999999999981,277.97800000000001
2013-11-03,17:00,307.708,276.25500000000005,71.598999999999990,-9.2792307692307681,-9999.0,0.57533333333333325,0.30033333333333329,7.6140000000000025,0.34999999999999981,277.79400000000004
2013-11-03,17:30,307.729,276.19433333333325,72.686999999999983,-8.0066666666666677,-9999.0,-0.14866666666666670,-1.2063333333333335,5.40000000000000202E-002,0.34999999999999981,277.63866666666667
2013-11-03,18:00,307.749,276.28400000000005,71.929333333333318,-7.5596666666666676,-9999.0,-0.14866666666666664,-1.1130000000000000,8.00000000000000190E-003,0.34999999999999981,277.57333333333338
2013-11-03,18:30,307.770,276.25566666666668,72.148666666666671,-7.4430000000000014,-9999.0,-0.20966666666666667,-1.1020000000000001,6.00000000000000099E-003,0.34999999999999981,277.51766666666674
2013-11-03,19:00,307.791,276.18766666666670,74.513999999999996,-6.9713333333333347,-9999.0,-0.19533333333333330,-1.0429999999999999,6.00000000000000186E-003,0.34999999999999981,277.47733333333332
2013-11-03,19:30,307.812,276.04300000000001,79.111000000000018,-6.5029999999999983,-9999.0,-0.20700000000000002,-1.0100000000000000,3.66666666666666616E-003,0.34999999999999981,277.43566666666669
2013-11-03,20:00,307.833,275.82600000000002,82.634333333333345,-6.2469999999999999,-9999.0,-0.21400000000000002,-1.0023333333333333,9.66666666666666716E-003,0.34999999999999981,277.40633333333329
2013-11-03,20:30,307.854,275.77233333333339,84.268999999999991,-5.9656666666666665,-9999.0,-0.15666666666666670,-0.94466666666666665,1.26666666666666698E-002,0.34999999999999981,277.38200000000001
2013-11-03,21:00,307.874,275.84166666666675,85.364666666666665,-6.0193333333333330,-9999.0,-0.13333333333333333,-0.95933333333333326,1.66666666666666677E-003,0.34999999999999981,277.36133333333333
2013-11-03,21:30,307.895,276.00866666666673,84.497999999999990,-6.4096666666666664,-9999.0,-9.79999999999999899E-002,-1.2350000000000001,0.0000000000000000,0.34999999999999981,277.34333333333336
2013-11-03,22:00,307.916,276.13499999999993,82.383000000000010,-6.3366666666666669,-9999.0,-8.13333333333333408E-002,-1.1840000000000002,1.10000000000000028E-002,0.34999999999999981,277.32666666666665
2013-11-03,22:30,307.937,276.25600000000003,79.668666666666667,-6.5453333333333337,-9999.0,-9.26666666666666611E-002,-1.1666666666666665,3.33333333333333322E-004,0.34999999999999981,277.30533333333346
2013-11-03,23:00,307.958,276.27466666666663,79.266999999999996,-7.0756666666666659,-9999.0,-7.93333333333333390E-002,-1.5143333333333331,4.33333333333333313E-003,0.34999999999999981,277.28933333333333
2013-11-03,23:30,307.979,276.23899999999998,82.358999999999995,-6.9003333333333332,-9999.0,-5.36666666666666750E-002,-1.6259999999999999,6.00000000000000186E-003,0.34999999999999981,277.27666666666676
2013-11-04,00:00,308.000,276.27633333333335,83.715333333333334,-7.2336666666666654,-9999.0,6.83333333333333431E-002,-2.1459999999999999,9.66666666666666716E-003,0.34999999999999981,277.26500000000016
